[[{"header":{"parameterUnit":"m.s-1","parameterCategory":1,"la1":30.2991,"la2":30.254,"lo1":-89.0895,"lo2":-89.0444,"dy":0.0017,"dx":0.0017,"nx":28,"ny":28,"refTime":"2026-02-17T03:00:00:Z","depth":0,"parameterNumber":2,"parameterNumberName":"U-component_of_WINDS"},"data":[0,0,0,0,0,0,0,0,0,0,0,0,0,0,0,0,0,0,0,0,0,0,0,0,0,0,0,0,0,0,0,0,0,0,0,0,0,0,0,0,0,0,0,0,0,0,0,0,0,0,0,0,0,0,0,0,0,0,-4.0734,-4.0735,0,-4.0839,-4.0841,-4.0842,-4.0823,-4.0822,-4.082,-4.0818,-4.0926,-4.093,-4.0935,0,0,0,0,0,0,0,0,0,0,0,0,0,-4.0519,-4.0523,-4.0734,-4.0735,-4.0737,-4.0839,-4.0841,-4.0842,-4.0824,-4.0822,-4.0819,-4.0817,-4.0924,-4.093,-4.0935,0,0,0,0,0,0,0,0,0,0,0,0,0,-4.0617,-4.0525,-4.0734,-4.074,-4.0741,-4.0839,-4.0841,-4.0843,-4.0824,-4.0821,-4.0819,-4.0816,-4.0922,-4.0929,-4.0936,-4.1034,0,0,-4.0957,-4.096,0,0,0,0,0,0,0,0,-4.0612,-4.0625,-4.0738,-4.074,-4.0742,-4.0815,-4.0804,-4.0907,-4.0825,-4.0793,-4.0818,-4.0815,-4.0891,-4.0901,-4.0926,-4.1039,-4.1043,-4.0957,-4.0962,-4.0965,-4.0967,0,0,0,0,0,0,0,-4.0605,-4.0621,-4.0776,-4.0739,-4.0742,-4.0738,-4.0749,-4.0824,-4.0856,-4.0795,-4.0794,-4.0807,-4.0892,-4.092,-4.0929,-4.1045,-4.0957,-4.0963,-4.0968,-4.097,-4.1246,-4.1249,0,0,0,0,0,0,-4.0596,-4.0615,-4.0772,-4.0779,-4.0669,-4.0744,-4.0756,-4.0795,-4.0855,-4.0862,-4.0809,-4.0806,-4.0909,-4.0921,-4.0932,-4.1052,-4.0965,-4.0971,-4.0975,-4.1243,-4.1247,-4.125,0,0,0,0,0,0,-4.0592,-4.0611,-4.0768,-4.0697,-4.0717,-4.0751,-4.0794,-4.0798,-4.0826,-4.0866,-4.0872,-4.0832,-4.0908,-4.0923,-4.1009,-4.1055,-4.0974,-4.098,-4.1239,-4.1244,-4.1249,-4.1291,0,0,0,0,0,0,-4.0586,-4.0609,-4.0645,-4.0698,-4.0721,-4.0842,-4.0797,-4.0802,-4.0838,-4.0834,-4.0888,-4.0895,-4.0907,-4.0999,-4.1016,-4.1063,-4.0986,-4.1235,-4.1241,-4.1247,-4.1285,-4.1296,-4.1306,0,0,0,0,0,-4.0578,-4.0653,-4.0647,-4.0666,-4.0767,-4.0845,-4.0858,-4.087,-4.0842,-4.0879,-4.0906,-4.0893,-4.1048,-4.1008,-4.1027,-4.1077,-4.1232,-4.124,-4.1247,-4.1281,-4.1294,-4.1305,0,0,0,0,0,0,-4.0603,-4.0659,-4.0654,-4.0748,-4.0792,-4.0842,-4.0889,-4.0884,-4.0936,-4.0931,-4.0944,-4.0957,-4.1044,-4.107,-4.1024,-4.1177,-4.1136,-4.1148,-4.1156,-4.1169,-4.1179,-4.117,-4.0991,0,0,0,0,0,-4.062,-4.0679,-4.0725,-4.0803,-4.0825,-4.0854,-4.0888,-4.0894,-4.094,-4.0959,-4.0991,-4.1037,-4.1096,-4.1134,-4.1191,-4.129,-4.1302,-4.1334,-4.1345,-4.1353,-4.1361,-4.1417,-4.1432,-4.1274,-4.1274,-4.1274,0,0,-4.0654,-4.0692,-4.0728,-4.0809,-4.0844,-4.0905,-4.0869,-4.0934,-4.098,-4.0969,-4.1052,-4.1078,-4.113,-4.1224,-4.1267,-4.1248,-4.1409,-4.1362,-4.1368,-4.1373,-4.1426,-4.1441,-4.1455,-4.1279,-4.1278,-4.1277,0,0,-4.0748,-4.0783,-4.0852,-4.0889,-4.0943,-4.0962,-4.0979,-4.1031,-4.1048,-4.1133,-4.1126,-4.1181,-4.1283,-4.132,-4.1353,-4.1466,-4.1457,-4.1485,-4.1537,-4.1591,-4.1604,-4.1615,-4.1655,-4.1669,-4.1494,-4.1494,-4.1494,0,-4.0783,-4.0874,-4.0888,-4.0955,-4.0991,-4.0986,-4.1058,-4.1093,-4.1162,-4.1188,-4.1166,-4.1295,-4.133,-4.1433,-4.1461,-4.1488,-4.1508,-4.1477,-4.1601,-4.1612,-4.1623,-4.1661,-4.1676,-4.1497,-4.1497,-4.1496,-4.1496,0,-4.0915,-4.0979,-4.1029,-4.1097,-4.114,-4.1209,-4.1234,-4.1276,-4.128,-4.1302,-4.139,-4.1432,-4.1498,-4.1524,-4.1528,-4.1629,-4.1615,-4.1598,-4.1557,-4.164,-4.1676,-4.1691,-4.1501,-4.15,-4.1499,-4.1499,0,0,-4.1022,-4.1101,-4.1119,-4.1151,-4.1213,-4.1263,-4.1333,-4.1398,-4.1434,-4.1484,-4.1543,-4.1632,-4.1616,-4.1653,-4.1662,-4.1711,-4.1798,-4.1687,-4.1688,-4.1705,-4.1912,-4.1923,-4.194,-4.1794,-4.1797,-4.1799,-4.1907,0,-4.112,-4.1243,-4.126,-4.1369,-4.1429,-4.1428,-4.1489,-4.1534,-4.1558,-4.1613,-4.164,-4.1702,-4.1677,-4.17,-4.1748,-4.1777,-4.1839,-4.177,-4.1849,-4.1851,-4.1833,-4.1959,-4.1971,-4.207,-4.1922,-4.1924,-4.1926,0,-4.1249,-4.1304,-4.1419,-4.1476,-4.1501,-4.1556,-4.1619,-4.1672,-4.1724,-4.1738,-4.1782,-4.1786,-4.186,-4.182,-4.1922,-4.1875,-4.1909,-4.1929,-4.1933,-4.1938,-4.1891,-4.1966,-4.2102,-4.2117,-4.1949,-4.1947,-4.1945,0,-4.1315,-4.1418,-4.15,-4.1528,-4.1596,-4.1635,-4.1665,-4.1715,-4.1754,-4.181,-4.1836,-4.19,-4.1934,-4.1984,-4.2005,-4.1974,-4.2107,-4.2068,-4.2121,-4.212,-4.2145,-4.2143,-4.2287,-4.2172,-4.2172,-4.2171,-4.2171,0,-4.1421,-4.1491,-4.1531,-4.1581,-4.1661,-4.1682,-4.176,-4.1789,-4.1835,-4.1892,-4.1896,-4.1949,-4.1976,-4.2034,-4.2053,-4.2135,-4.2151,-4.2164,-4.2168,-4.2163,-4.2161,-4.2183,-4.2175,-4.2175,-4.2174,-4.2174,-4.2173,0,-4.1505,-4.1535,-4.1625,-4.1683,-4.17,-4.1756,-4.1806,-4.1856,-4.1882,-4.1954,-4.1972,-4.2012,-4.2081,-4.2109,-4.2193,-4.2206,-4.23,-4.23,-4.2282,-4.2283,-4.2333,-4.2327,-4.2494,-4.2517,-4.2389,-4.239,-4.2391,0,-4.1569,-4.1623,-4.1689,-4.1728,-4.1759,-4.1822,-4.1863,-4.1887,-4.193,-4.1996,-4.2038,-4.2108,-4.2164,-4.2274,-4.2311,-4.2376,-4.2376,-4.243,-4.2385,-4.2379,-4.2375,-4.2371,-4.2376,-4.2437,-4.2438,-4.244,-4.244,0,-4.168,-4.1693,-4.1751,-4.1817,-4.1866,-4.1918,-4.1969,-4.2001,-4.2033,-4.2081,-4.2152,-4.2196,-4.2284,-4.2353,-4.2421,-4.2453,-4.2452,-4.2455,-4.247,-4.2464,-4.2451,-4.2457,-4.2302,-4.245,-4.2449,-4.2448,-4.2448,-4.2447,-4.1755,-4.1804,-4.1858,-4.1924,-4.1966,-4.2015,-4.2065,-4.2098,-4.2158,-4.2231,-4.2243,-4.2319,-4.2374,-4.2465,-4.2501,-4.2561,-4.2547,-4.2569,-4.2575,-4.2579,-4.2582,-4.2444,-4.2574,-4.2574,-4.2574,-4.2573,-4.2573,0,-4.1864,-4.1901,-4.1961,-4.2034,-4.2086,-4.2084,-4.2141,-4.2185,-4.2252,-4.2304,-4.236,-4.2443,-4.2511,-4.2555,-4.2624,-4.2664,-4.2666,-4.2681,-4.2677,-4.2685,-4.2591,-4.257,-4.2679,-4.2679,-4.2679,-4.2679,-4.2679,-4.2679,-4.1927,-4.201,-4.203,-4.2135,-4.2171,-4.2246,-4.2279,-4.2325,-4.2366,-4.2458,-4.2515,-4.2544,-4.2593,-4.2667,-4.2729,-4.2741,-4.2765,-4.2781,-4.2792,-4.2702,-4.2691,-4.2681,-4.2661,-4.2787,-4.2787,-4.288,-4.2881,-4.2881]},{"header":{"parameterUnit":"m.s-1","parameterCategory":1,"la1":30.2991,"la2":30.254,"lo1":-89.0895,"lo2":-89.0444,"dy":0.0017,"dx":0.0017,"nx":28,"ny":28,"refTime":"2026-02-17T03:00:00:Z","depth":0,"parameterNumber":3,"parameterNumberName":"V-component_of_WINDS"},"data":[0,0,0,0,0,0,0,0,0,0,0,0,0,0,0,0,0,0,0,0,0,0,0,0,0,0,0,0,0,0,0,0,0,0,0,0,0,0,0,0,0,0,0,0,0,0,0,0,0,0,0,0,0,0,0,0,0,0,1.5002,1.5004,0,1.5114,1.5115,1.5117,1.5249,1.5251,1.5253,1.5255,1.5366,1.5367,1.5369,0,0,0,0,0,0,0,0,0,0,0,0,0,1.4904,1.4905,1.5002,1.5004,1.5005,1.5114,1.5115,1.5117,1.5248,1.5251,1.5253,1.5256,1.5366,1.5367,1.5369,0,0,0,0,0,0,0,0,0,0,0,0,0,1.4974,1.4905,1.5002,1.5084,1.5092,1.5114,1.5115,1.5117,1.5248,1.5251,1.5254,1.5257,1.5366,1.5367,1.5369,1.5318,0,0,1.5374,1.5374,0,0,0,0,0,0,0,0,1.497,1.4977,1.507,1.5078,1.5088,1.5171,1.5122,1.5184,1.5247,1.5189,1.5255,1.5258,1.5299,1.5306,1.532,1.5323,1.5328,1.5374,1.5375,1.5376,1.5376,0,0,0,0,0,0,0,1.4965,1.4973,1.5046,1.5072,1.5082,1.5115,1.5129,1.5134,1.5225,1.5194,1.5204,1.5215,1.5304,1.5318,1.5324,1.533,1.5374,1.5375,1.5376,1.5377,1.5301,1.5299,0,0,0,0,0,0,1.4948,1.4968,1.5043,1.505,1.5035,1.5114,1.5129,1.5141,1.5225,1.5241,1.5213,1.5221,1.5314,1.5322,1.5328,1.5277,1.5376,1.5377,1.5378,1.5304,1.5301,1.5298,0,0,0,0,0,0,1.4945,1.4953,1.5038,1.5012,1.5025,1.5113,1.5125,1.5141,1.5156,1.524,1.5256,1.521,1.5317,1.5326,1.5321,1.5283,1.5378,1.5379,1.5308,1.5303,1.5299,1.5172,0,0,0,0,0,0,1.4941,1.4951,1.4932,1.501,1.5026,1.5028,1.5122,1.5141,1.5159,1.5171,1.5242,1.5257,1.532,1.5318,1.5322,1.5287,1.5381,1.5312,1.5306,1.5301,1.518,1.5164,1.515,0,0,0,0,0,1.4937,1.489,1.493,1.4939,1.5004,1.5026,1.5035,1.5109,1.5155,1.5137,1.5192,1.5254,1.5286,1.5316,1.5322,1.5286,1.5314,1.5307,1.5301,1.5187,1.5167,1.515,0,0,0,0,0,0,1.4803,1.4902,1.4947,1.4924,1.4966,1.5048,1.5027,1.5085,1.5113,1.5123,1.5214,1.5229,1.5213,1.525,1.5281,1.5244,1.531,1.5304,1.5221,1.5202,1.5188,1.5179,1.5382,0,0,0,0,0,1.4771,1.478,1.4866,1.4837,1.4856,1.4938,1.495,1.5004,1.505,1.5068,1.5122,1.5164,1.5185,1.5196,1.5219,1.5186,1.5205,1.5165,1.515,1.5137,1.5131,1.5121,1.5105,1.5276,1.5276,1.5276,0,0,1.4704,1.476,1.4759,1.4812,1.4851,1.4859,1.4952,1.4955,1.4963,1.5069,1.5068,1.5109,1.5163,1.5145,1.514,1.5175,1.5089,1.5129,1.5118,1.5119,1.5112,1.5096,1.5081,1.5271,1.5272,1.5273,0,0,1.4587,1.4629,1.4611,1.4649,1.4708,1.4763,1.4759,1.4833,1.4865,1.4867,1.4947,1.4958,1.4989,1.5026,1.5048,1.4949,1.5009,1.4954,1.4875,1.4864,1.485,1.4839,1.4805,1.4792,1.4948,1.4948,1.4947,0,1.4496,1.4512,1.4595,1.4595,1.4617,1.4716,1.4699,1.4732,1.4793,1.4807,1.4846,1.4891,1.4933,1.4927,1.4903,1.4917,1.4917,1.4946,1.4845,1.4835,1.4825,1.4795,1.4782,1.4941,1.4942,1.4942,1.4943,0,1.4399,1.4409,1.4388,1.4448,1.4467,1.4459,1.4541,1.4551,1.4605,1.4656,1.4658,1.4714,1.4751,1.4754,1.4805,1.4756,1.4776,1.4829,1.4897,1.4801,1.4774,1.4762,1.4931,1.4933,1.4935,1.4937,0,0,1.4197,1.4306,1.4297,1.4327,1.4401,1.441,1.4408,1.4446,1.4454,1.4494,1.4496,1.4523,1.4574,1.4599,1.4656,1.4645,1.4567,1.47,1.4703,1.4675,1.452,1.448,1.4464,1.4608,1.4606,1.4605,1.4516,0,1.4094,1.4096,1.4172,1.4153,1.4165,1.4261,1.426,1.4305,1.4354,1.4372,1.4427,1.4445,1.451,1.4526,1.4521,1.4578,1.4537,1.4585,1.4611,1.4611,1.4594,1.445,1.4407,1.432,1.4505,1.4504,1.4502,0,1.3973,1.4009,1.3991,1.407,1.4077,1.4074,1.4118,1.4133,1.4188,1.4225,1.4256,1.4321,1.4326,1.4391,1.44,1.4431,1.4447,1.4477,1.4475,1.448,1.455,1.4452,1.4294,1.4281,1.4486,1.4487,1.4489,0,1.3829,1.3874,1.387,1.3892,1.3983,1.3979,1.4016,1.4074,1.4094,1.4132,1.4146,1.4184,1.4204,1.4233,1.4308,1.4347,1.4309,1.4379,1.4341,1.4339,1.4327,1.4327,1.417,1.4336,1.4337,1.4337,1.4337,0,1.3706,1.3692,1.3807,1.3804,1.3793,1.3881,1.3867,1.3914,1.3966,1.3975,1.4061,1.4068,1.4166,1.4185,1.4244,1.4244,1.4252,1.4283,1.4299,1.4276,1.4272,1.4287,1.4295,1.4333,1.4334,1.4335,1.4335,0,1.3543,1.3619,1.3622,1.3709,1.3731,1.3718,1.3793,1.3795,1.3851,1.3862,1.387,1.3958,1.3985,1.4063,1.4109,1.415,1.4133,1.4162,1.4114,1.4124,1.4082,1.4085,1.3929,1.3914,1.4089,1.4087,1.4086,0,1.3459,1.3451,1.3538,1.3551,1.3585,1.3605,1.3626,1.3715,1.3733,1.3798,1.3793,1.3827,1.3859,1.3898,1.3967,1.4004,1.4035,1.3978,1.4041,1.4019,1.4036,1.4036,1.4036,1.3964,1.3961,1.3959,1.3958,0,1.3303,1.3342,1.337,1.3412,1.3435,1.3472,1.3514,1.352,1.3619,1.3636,1.3666,1.3691,1.374,1.3774,1.3823,1.3863,1.3927,1.3938,1.3932,1.3907,1.388,1.3896,1.4077,1.3941,1.3943,1.3944,1.3945,1.3945,1.3178,1.3176,1.3238,1.3267,1.3309,1.3347,1.3354,1.3413,1.3439,1.3487,1.3538,1.3562,1.3622,1.3694,1.373,1.3752,1.3786,1.3775,1.3773,1.3769,1.3759,1.3877,1.3761,1.3761,1.3762,1.3762,1.3763,0,1.3027,1.3073,1.3099,1.3156,1.3179,1.324,1.3291,1.3306,1.3327,1.3377,1.3408,1.3444,1.3478,1.3551,1.3593,1.3596,1.3627,1.3604,1.3604,1.3613,1.3725,1.3728,1.3578,1.3578,1.3579,1.3579,1.3579,1.3579,1.2952,1.2953,1.3,1.3025,1.3071,1.3096,1.312,1.3157,1.3198,1.3234,1.3264,1.3311,1.3372,1.3419,1.3454,1.3475,1.3487,1.3454,1.3484,1.3587,1.3605,1.3621,1.3624,1.3456,1.3456,1.3371,1.337,1.337]}]]